Satellite: COMPASS
Catalog number: 32787
Epoch time:      12130.70180197
Element set:     298
Inclination:      097.8025 deg
RA of node:       192.8854 deg
Eccentricity:    0.0015057
Arg of perigee:   182.7960 deg
Mean anomaly:     177.3140 deg
Mean motion:   14.83849207 rev/day
Decay rate:      1.353e-05 rev/day^2
Epoch rev:           21810
Checksum:              306

Satellite: AAUSAT2
Catalog number: 32788
Epoch time:      12130.14029375
Element set:    0288
Inclination:      097.8041 deg
RA of node:       192.6977 deg
Eccentricity:    0.0014772
Arg of perigee:   183.0809 deg
Mean anomaly:     177.0336 deg
Mean motion:   14.84159666 rev/day
Decay rate:      2.256e-05 rev/day^2
Epoch rev:           21804
Checksum:              321

Satellite: DO-64
Catalog number: 32789
Epoch time:      12130.69723355
Element set:    0307
Inclination:      097.8141 deg
RA of node:       195.1199 deg
Eccentricity:    0.0014887
Arg of perigee:   179.5103 deg
Mean anomaly:     180.6113 deg
Mean motion:   14.85541679 rev/day
Decay rate:      3.071e-05 rev/day^2
Epoch rev:           21816
Checksum:              323

Satellite: CO-66
Catalog number: 32791
Epoch time:      12130.81149273
Element set:    0290
Inclination:      097.8013 deg
RA of node:       192.7653 deg
Eccentricity:    0.0015933
Arg of perigee:   179.9575 deg
Mean anomaly:     180.1626 deg
Mean motion:   14.83295861 rev/day
Decay rate:      1.651e-05 rev/day^2
Epoch rev:           21805
Checksum:              321

Satellite: RS-30
Catalog number: 32953
Epoch time:      12131.05802784
Element set:     764
Inclination:      082.5011 deg
RA of node:       318.8557 deg
Eccentricity:    0.0019433
Arg of perigee:   033.8136 deg
Mean anomaly:     326.4183 deg
Mean motion:   12.43023182 rev/day
Decay rate:        1.0e-07 rev/day^2
Epoch rev:           17982
Checksum:              274

Satellite: TACSAT-3
Catalog number: 35001
Epoch time:      12121.72616188
Element set:    0001
Inclination:      040.4259 deg
RA of node:       351.8840 deg
Eccentricity:    0.0007146
Arg of perigee:   275.2650 deg
Mean anomaly:     085.0693 deg
Mean motion:   16.45157000 rev/day
Decay rate:  1.5204951e-01 rev/day^2
Epoch rev:           16699
Checksum:              280

Satellite: PHARMSAT
Catalog number: 35002
Epoch time:      12130.90911432
Element set:    0899
Inclination:      040.4631 deg
RA of node:       311.1644 deg
Eccentricity:    0.0006298
Arg of perigee:   307.5783 deg
Mean anomaly:     052.4464 deg
Mean motion:   15.76846217 rev/day
Decay rate:     8.4461e-04 rev/day^2
Epoch rev:           16826
Checksum:              293

Satellite: METEOR-M
Catalog number: 35865
Epoch time:      12131.21977172
Element set:     396
Inclination:      098.6580 deg
RA of node:       186.2509 deg
Eccentricity:    0.0002733
Arg of perigee:   143.9302 deg
Mean anomaly:     216.2061 deg
Mean motion:   14.21861424 rev/day
Decay rate:        1.0e-08 rev/day^2
Epoch rev:           13720
Checksum:              270

Satellite: RS-38
Catalog number: 35869
Epoch time:      12131.31684998
Element set:     404
Inclination:      098.6536 deg
RA of node:       186.3482 deg
Eccentricity:    0.0004871
Arg of perigee:   152.3590 deg
Mean anomaly:     207.7844 deg
Mean motion:   14.22068238 rev/day
Decay rate:        4.8e-07 rev/day^2
Epoch rev:           13723
Checksum:              327

Satellite: JUGNU
Catalog number: 37839
Epoch time:      12130.65792387
Element set:    0146
Inclination:      019.9620 deg
RA of node:       231.6486 deg
Eccentricity:    0.0018485
Arg of perigee:   156.6258 deg
Mean anomaly:     203.4975 deg
Mean motion:   14.12050603 rev/day
Decay rate:       6.20e-06 rev/day^2
Epoch rev:           02979
Checksum:              307

Satellite: SRMSAT
Catalog number: 37841
Epoch time:      12130.66004140
Element set:    0147
Inclination:      019.9747 deg
RA of node:       235.7683 deg
Eccentricity:    0.0011845
Arg of perigee:   129.3185 deg
Mean anomaly:     230.8312 deg
Mean motion:   14.10136386 rev/day
Decay rate:       2.64e-06 rev/day^2
Epoch rev:           02975
Checksum:              278

Satellite: RAX-2
Catalog number: 37853
Epoch time:      12130.98765468
Element set:    0175
Inclination:      101.7155 deg
RA of node:       153.7882 deg
Eccentricity:    0.0248646
Arg of perigee:   099.8776 deg
Mean anomaly:     263.0592 deg
Mean motion:   14.79608040 rev/day
Decay rate:      5.047e-05 rev/day^2
Epoch rev:           02875
Checksum:              344

Satellite: AUBIESAT
Catalog number: 37854
Epoch time:      12130.95188896
Element set:    0182
Inclination:      101.7176 deg
RA of node:       153.9350 deg
Eccentricity:    0.0250563
Arg of perigee:   099.6022 deg
Mean anomaly:     263.3583 deg
Mean motion:   14.79963988 rev/day
Decay rate:      5.023e-05 rev/day^2
Epoch rev:           02873
Checksum:              329

Satellite: HRBE
Catalog number: 37855
Epoch time:      12130.96204719
Element set:    0177
Inclination:      101.7199 deg
RA of node:       153.9193 deg
Eccentricity:    0.0249937
Arg of perigee:   099.3746 deg
Mean anomaly:     263.5805 deg
Mean motion:   14.79835773 rev/day
Decay rate:      5.001e-05 rev/day^2
Epoch rev:           02873
Checksum:              336

Satellite: RS-39
Catalog number: 38051
Epoch time:      12130.96910094
Element set:    0319
Inclination:      051.6307 deg
RA of node:       341.8813 deg
Eccentricity:    0.0010751
Arg of perigee:   260.3847 deg
Mean anomaly:     240.4136 deg
Mean motion:   15.23622321 rev/day
Decay rate:      6.491e-05 rev/day^2
Epoch rev:           01614
Checksum:              269

Satellite: E-STAR
Catalog number: 38079
Epoch time:      12131.73937219
Element set:     217
Inclination:      069.4995 deg
RA of node:       041.1367 deg
Eccentricity:    0.0753534
Arg of perigee:   294.9815 deg
Mean anomaly:     057.5220 deg
Mean motion:   14.12989487 rev/day
Decay rate:     3.1723e-04 rev/day^2
Epoch rev:            1229
Checksum:              327

Satellite: GOLIAT
Catalog number: 38085
Epoch time:      12131.13915793
Element set:     203
Inclination:      069.4992 deg
RA of node:       042.6468 deg
Eccentricity:    0.0756665
Arg of perigee:   295.8165 deg
Mean anomaly:     056.7094 deg
Mean motion:   14.12032533 rev/day
Decay rate:     2.9736e-04 rev/day^2
Epoch rev:            1220
Checksum:              309

/EX




More information about the Keps mailing list